Location: ??
(31.9467°N, 34.8903°E)
Time: 18:29:36
(UTC+00:00)

SEDSat Delta rocket - Pass Details

Date: 29 October 2020
Orbit: 533 x 1000 km, 31.4° (Epoch: 30 November)

Event Time Altitude Azimuth Distance (km) Brightness Sun altitude
Rises 17:04:07 0° 238° (WSW) 3,696 7.9 -28.3°
Reaches altitude 10° 17:06:57 10° 233° (SW) 2,728 6.9 -28.9°
Enters shadow 17:12:26 46° 186° (S) 1,240 4.5 -30.1°
